STARLINK-30056, 57622

Orbit data source: Space-Track

STARLINK-30056, 57622 is a payload satellite owned by SpaceX/Seattle (US) in LEO that was launched on Fri, 11 Aug 2023 UTC via an FALCON 9 launch vehicle from the Air Force Eastern Test Range (AFETR). Payload-class satellites include a variety of spacecraft equipped with specific instruments for various scientific and technological missions. These include communications satellites like Starlink; space stations such as the ISS; scientific satellites like the Hubble; Earth observation satellites from companies like Planet Labs, Umbra, and HawkEye 360; GPS; miniature CubeSats for education and research; and military/defense satellites.

Loading next visibility...
Identifier
57622, 2023-119W
Orbit
LEO
Country
Flag of USUS
Related business
Manufacturer
SpaceX/Seattle
Mission
Operational Commercial Communications
Bus & Motor
STARLINK V2M, Unknown motor
Mass
730 kg wet, ~700 kg dry
Launch date (UTC)
2023-08-11 (3 years ago)
Launch vehicle
FALCON 9
Launch site
Air Force Eastern Test Range (AFETR)
Object type
Payload
Rocket body
Debris
Shape & HBR
Box + 2 Pan, 17.7 m
Radar Cross Section
33.884 m², Large (>1 m²)

Expand to show TLE details & history
Last TLE update: 12 hours ago

TLE from 12 hours ago
0 STARLINK-30056
1 57622U 23119W   26094.62012910 -.00002257  00000-0 -74467-4 0  9990
2 57622  43.0034 294.9833 0001504 266.1972  93.8707 15.26745888147054
Epoch: 2026-04-04T14:52Z
TLE epoch observation values (Epoch: 2026-04-04T14:52:59.154Z)
Latitude
-0.00004°
Longitude
-121.20051°
Altitude
485.394 km
Speed
7.624 km/s
True Right ascension
19h 39m 55s
True Declination
0° 00' 00"
Sunlit
Object was in daylight at epoch
Visualization orbit readout
Latitude
Unknown
Longitude
Unknown
Altitude
Unknown
Speed
Unknown
Apparent Right ascension
Unknown
Apparent Declination
Unknown
Sunlit
N/A
Visualization observer readout
Local Sidereal Time
08:34:09
Azimuth
Unknown
Elevation
Unknown
Doppler factor
Unknown
Orbital elements
Apogee altitude
488.524 km
Perigee altitude
486.459 km
Semi-major axis
6,865.629 km
Eccentricity
0.00015
Inclination
43.0034°
RAAN
294.9833°
Arg. of periapsis
266.1972°
True anomaly
93.8879°
Mean anomaly
93.8707°
Eccentric anomaly
93.8793°
Mean motion
3.81525 °/min
Orbital period
94.36 mins
BSTAR
-0.000074467
Loading maneuver chart data...
Computing Atmospheric mass density...
Loading historical data...
Loading historical data...
Loading historical data...
Loading historical data...
Loading historical data...
Loading historical data...
Loading historical data...

Documentation

Showing up to 5 results
|